AO-07 1 07530U 74089B 24256.54294274 -.00000012 00000-0 21616-3 0 9992 2 07530 101.9855 252.0277 0011870 278.2862 212.2683 12.53679338279989 UO-11 1 14781U 84021B 24256.90504166 .00007138 00000-0 79504-3 0 9993 2 14781 97.7143 223.6158 0009241 138.1136 222.0789 14.87353366182524 AO-27 1 22825U 93061C 24256.40760271 .00000674 00000-0 27582-3 0 9998 2 22825 98.7800 310.0602 0008513 176.7164 183.4075 14.30578231615086 FO-29 1 24278U 96046B 24256.51413774 .00000234 00000-0 27657-3 0 9998 2 24278 98.5794 179.7174 0349463 322.2371 35.4703 13.53209645386245 NOAA-15 1 25338U 98030A 24256.83444767 .00000908 00000-0 39281-3 0 9996 2 25338 98.5649 282.1188 0011376 71.4478 288.7938 14.26705364369936 GO-32 1 25397U 98043D 24256.92198934 .00000659 00000-0 30636-3 0 9995 2 25397 98.9319 224.9968 0000146 255.1837 104.9325 14.24120957360120 ISS 1 25544U 98067A 24256.83258804 .00038544 00000-0 70362-3 0 9992 2 25544 51.6364 241.2184 0007518 344.4386 15.6370 15.49004202472149 NO-44 1 26931U 01043C 24256.62327549 .00001272 00000-0 51035-3 0 9995 2 26931 67.0498 105.6486 0007698 267.8552 92.1668 14.31370241198468 SO-50 1 27607U 02058C 24256.54535232 .00007914 00000-0 10629-2 0 9996 2 27607 64.5561 312.9215 0026432 63.6445 296.7369 14.79643343169450 CO-55 1 27844U 03031E 24256.75025998 .00002426 00000-0 10862-2 0 9999 2 27844 98.6798 262.5769 0008529 248.1166 111.9106 14.23462518100278 CO-57 1 27848U 03031J 24256.43825160 .00001506 00000-0 68943-3 0 9999 2 27848 98.6830 262.4634 0008353 268.0111 92.0111 14.22870197 99946 RS-22 1 27939U 03042A 24256.81187450 .00011012 00000-0 18162-2 0 9997 2 27939 98.3017 54.4831 0012466 140.3789 325.8165 14.70582569121153 NOAA-18 1 28654U 05018A 24256.78430021 .00001237 00000-0 68245-3 0 9994 2 28654 98.8690 333.0054 0014510 171.2693 188.8734 14.13327438995632 CO-58 1 28895U 05043F 24256.34727958 .00006601 00000-0 11443-2 0 9996 2 28895 98.2128 32.3941 0016168 83.1059 277.1984 14.68507755 7243 CO-65 1 32785U 08021C 24256.88720012 .00020745 00000-0 17354-2 0 9993 2 32785 97.7626 221.6089 0011950 41.0842 319.1278 14.98442667888676 AAUSAT2 1 32788U 08021F 24256.52356293 .00149941 00000-0 60579-2 0 9990 2 32788 97.5998 237.3947 0004597 165.5883 194.5486 15.24086381891691 CO-66 1 32791U 08021J 24256.89319462 .00038359 00000-0 25687-2 0 9992 2 32791 97.6978 227.7617 0006100 42.3639 317.8059 15.06774272889791 RS-30 1 32953U 08025A 24256.87579456 .00000061 00000-0 36953-3 0 9993 2 32953 82.5047 34.9296 0018620 273.0463 86.8486 12.43147920740010 PRISM 1 33493U 09002B 24256.74436732 .00152404 00000-0 57562-2 0 9991 2 33493 98.1951 312.2665 0009545 301.7484 58.2822 15.26302160852370 NOAA-19 1 33591U 09005A 24256.81905903 .00000785 00000-0 44388-3 0 9999 2 33591 99.0389 313.5138 0014445 48.6680 311.5732 14.13115545804009 SRMSAT 1 37841U 11058D 24256.58027760 .00001332 00000-0 58300-3 0 9990 2 37841 19.9734 348.1755 0011787 336.5860 51.6259 14.11206109667143 RS-40 1 38735U 12041C 24256.85842797 .00000064 00000-0 39231-3 0 9994 2 38735 82.4728 115.2330 0018039 29.8678 330.3427 12.42615402550161 ZACUBE-1 1 39417U 13066B 24256.76093391 .00028756 00000-0 28474-2 0 9992 2 39417 97.7412 210.8813 0047216 228.4285 131.2882 14.90944992584621 Delfi-N3xt 1 39428U 13066N 24256.67094371 .00038472 00000-0 46325-2 0 9994 2 39428 97.8317 172.7909 0098131 163.2864 197.1621 14.80322565579206 GOMX-1 1 39430U 13066Q 24256.84487804 .00010887 00000-0 17722-2 0 9992 2 39430 97.7186 125.9054 0137554 334.6719 24.7783 14.65034903575871 LO-74 1 39440U 13066AA 24256.83556130 .00029552 00000-0 33318-2 0 9999 2 39440 97.8158 198.6985 0067450 349.4394 10.5400 14.84864617582536 AO-73 1 39444U 13066AE 24256.87442215 .00023562 00000-0 21500-2 0 9990 2 39444 97.7261 214.3690 0045248 206.3163 153.5758 14.94286259583782 DTUSAT-2 1 40030U 14033W 24256.84665805 .00035128 00000-0 27765-2 0 9997 2 40030 98.0170 211.7619 0008273 223.8306 136.2261 15.00534225556346 EO-80 1 40032U 14033Y 24256.81320552 .00033706 00000-0 26638-2 0 9991 2 40032 98.0099 211.7062 0008161 186.0692 174.0433 15.00550123556328 XW-2C 1 40906U 15049H 24256.81799802 .00102802 00000-0 17414-2 0 9993 2 40906 97.4739 276.3581 0005167 8.5233 351.6105 15.51161430498012 XW-2D 1 40907U 15049J 24256.79512382 .00270020 00000-0 26536-2 0 9990 2 40907 97.4650 280.1124 0001645 2.3387 357.7880 15.65163489498322 LILACSAT-2 1 40908U 15049K 24256.78121853 .00039923 00000-0 14128-2 0 9998 2 40908 97.5253 266.2659 0013058 51.0511 309.1890 15.28955778496860 XW-2B 1 40911U 15049N 24256.81553558 .00194726 00000-0 20542-2 0 9997 2 40911 97.4629 280.0589 0002015 10.2245 349.9054 15.63596925498183 IO-86 1 40931U 15052B 24231.70395842 .00002296 00000-0 22250-3 0 9993 2 40931 5.9997 265.9807 0013402 250.6059 109.2619 14.78018769480834 ChubuSat-2 1 41338U 16012B 24256.19904531 .00014049 00000-0 83804-3 0 9994 2 41338 30.9993 190.2001 0010296 25.9555 334.1598 15.09920891470756 ChubuSat-3 1 41339U 16012C 24256.84124379 .00025682 00000-0 15649-2 0 9997 2 41339 31.0064 185.1449 0010352 36.6753 323.4592 15.09203625470821 Horyu-4 1 41340U 16012D 24256.79294258 .00042246 00000-0 18927-2 0 9994 2 41340 31.0007 123.3348 0007016 144.5106 215.6003 15.20039869471477 Lapan A3 1 41603U 16040E 24256.86447116 .00011984 00000-0 46324-3 0 9996 2 41603 97.1434 266.6679 0013123 142.9830 217.2318 15.26293442456594 Pratham 1 41783U 16059A 24256.48416087 .00005445 00000-0 10096-2 0 9997 2 41783 97.8358 271.7345 0033913 103.2788 257.2202 14.65267254425320 CAS-2T 1 41847U 16066G 24256.48816294 .00003321 00000-0 49234-3 0 9998 2 41847 98.4531 327.1384 0351128 274.3807 81.7348 14.41757968412072 CAS-4B 1 42759U 17034B 24256.90486295 .00057147 00000-0 17456-2 0 9993 2 42759 43.0154 89.3000 0013032 226.5638 133.4132 15.33009224400849 CAS-4A 1 42761U 17034D 24256.83338109 .00056039 00000-0 17025-2 0 9999 2 42761 43.0191 87.9845 0013000 237.4469 122.5130 15.33189778400842 D-SAT 1 42794U 17036AF 24256.69416040 .00029584 00000-0 19541-2 0 9992 2 42794 97.4853 235.4751 0105846 209.8470 149.6694 15.02798480393889 TechnoSat 1 42829U 17042E 24256.74022263 .00018602 00000-0 15832-2 0 9992 2 42829 97.3882 72.9839 0012602 135.3457 224.8783 14.97783939390276 AO-91 1 43017U 17073E 24256.70371161 .00049001 00000-0 28684-2 0 9992 2 43017 97.5622 129.1590 0202984 1.0972 359.0653 14.95920907368733 TianYi 6 1 43158U 18008D 24256.68915792 .00496380 00000-0 40391-2 0 9993 2 43158 97.2489 306.5573 0005844 153.7531 206.4029 15.69169791368078 S-Net D 1 43186U 18014G 24256.47022117 .00027482 00000-0 18732-2 0 9995 2 43186 97.5793 156.8101 0012210 73.5770 286.6798 15.06149819361630 S-Net B 1 43187U 18014H 24256.47296512 .00027447 00000-0 18710-2 0 9995 2 43187 97.5797 156.7686 0012876 69.3712 290.8895 15.06139094361638 S-Net A 1 43188U 18014J 24256.47129560 .00027198 00000-0 18536-2 0 9993 2 43188 97.5804 156.8870 0012842 70.1198 290.1411 15.06150675361630 S-Net C 1 43189U 18014K 24256.47504002 .00027578 00000-0 18791-2 0 9997 2 43189 97.5816 156.8558 0014323 62.9874 297.2814 15.06139012360189 Ten-Koh 1 43677U 18084G 24256.40015423 .00008999 00000-0 78302-3 0 9994 2 43677 98.0750 52.6050 0014983 88.2008 272.0929 14.97106682319768 PO-101 1 43678U 18084H 24256.85358783 .00007298 00000-0 65606-3 0 9997 2 43678 98.0815 57.4973 0010007 101.1233 259.1112 14.95949118320024 QO-100 1 43700U 18090A 24256.30743795 .00000146 00000-0 00000-0 0 9990 2 43700 0.0181 149.6877 0001296 359.6895 338.9232 1.00270553 21232 MinXSS-2 1 43758U 18099A 24256.68525047 .00062702 00000-0 35943-2 0 9993 2 43758 97.5454 317.8274 0015334 22.2534 337.9359 15.12231099315998 AO-95 1 43770U 18099N 24256.56502745 .00048967 00000-0 31443-2 0 9992 2 43770 97.5374 312.6262 0014061 68.5643 291.7084 15.08192449315726 RANGE-B 1 43772U 18099Q 24256.64717930 .00073770 00000-0 40730-2 0 9996 2 43772 97.5160 316.5543 0004185 332.3113 27.7895 15.13608889315932 RANGE-A 1 43773U 18099R 24256.71791081 .00026976 00000-0 19521-2 0 9994 2 43773 97.4926 307.1755 0013489 42.0779 318.1480 15.03898921315588 MOVE-II 1 43780U 18099Y 24256.74576663 .00142502 00000-0 61329-2 0 9999 2 43780 97.5113 319.1969 0005266 42.8212 317.3433 15.21973993316212 SNUSat 2 1 43782U 18099AA 24256.70119503 .00033052 00000-0 21948-2 0 9995 2 43782 97.5054 311.4250 0013825 9.2277 350.9203 15.07059337315740 SnugLite 1 43784U 18099AC 24256.57997273 .00049358 00000-0 31531-2 0 9995 2 43784 97.4866 310.6058 0004243 28.2218 331.9240 15.08452645315806 ITASat 1 1 43786U 18099AE 24256.68653178 .00033930 00000-0 23033-2 0 9999 2 43786 97.5023 311.5368 0017773 58.4725 301.8236 15.06183853315731 EAGLET 1 1 43790U 18099AJ 24256.69475687 .00024895 00000-0 17844-2 0 9995 2 43790 97.5215 312.0250 0013947 38.3548 321.8667 15.04272073315421 ESEO 1 43792U 18099AL 24256.59466178 .00010475 00000-0 83694-3 0 9997 2 43792 97.5059 308.2188 0008092 24.4216 335.7390 15.00396521315304 CSIM 1 43793U 18099AM 24256.75213962 .00135503 00000-0 59115-2 0 9997 2 43793 97.5219 320.9856 0010013 10.3614 349.7826 15.21513367316063 JO-97 1 43803U 18099AX 24256.59311935 .00054169 00000-0 33043-2 0 9990 2 43803 97.5109 313.4178 0008893 10.9954 349.1468 15.10091429315875 Suomi 100 1 43804U 18099AY 24256.62888130 .00049957 00000-0 31314-2 0 9999 2 43804 97.5195 313.2179 0014643 7.8590 352.2866 15.09066292315854 ISAT 1 43879U 18111D 24256.70505395 .00069922 00000-0 38177-2 0 9992 2 43879 97.6069 162.1213 0014783 66.0621 294.2157 15.13945037310620 UWE-4 1 43880U 18111E 24256.49075366 .00061324 00000-0 34793-2 0 9998 2 43880 97.6004 161.6905 0018254 73.1138 287.2092 15.12567412312619 Sparrow 1 43881U 18111F 24256.71059710 .00069834 00000-0 37529-2 0 9993 2 43881 97.6171 164.2065 0012615 98.5329 261.7332 15.14535676310711 Prox-1 1 44339U 19036A 24256.52369054 .00058509 00000-0 95145-2 0 9998 2 44339 24.0000 22.4920 0006869 256.7802 103.1926 14.69661111278093 SONATE 1 44400U 19038Q 24256.78988099 .00109376 00000-0 26976-2 0 9998 2 44400 97.7161 255.1433 0016835 144.9650 215.2706 15.39979331287538 Taurus 1 1 44530U 19059C 24256.84277544 .00033324 00000-0 72857-2 0 9996 2 44530 98.5820 19.4810 0011218 148.9873 211.1989 14.57601035264528 Duchifat 3 1 44854U 19089C 24256.65637411 .00083046 00000-0 36325-2 0 9996 2 44854 36.9541 236.4218 0005663 145.9511 214.1601 15.20908052261508 TO-108 1 44881U 19093C 24256.83401380 .00005549 00000-0 66796-3 0 9993 2 44881 97.8221 331.9225 0015009 40.7911 319.4424 14.84207655256044 FloripaSat 1 1 44885U 19093G 24256.79556974 .00021984 00000-0 21629-2 0 9998 2 44885 97.8365 338.7759 0012294 30.2284 329.9642 14.92050234256422 RS-44 1 44909U 19096E 24256.51797045 .00000042 00000-0 12569-3 0 9990 2 44909 82.5210 46.7279 0217118 206.7971 152.1782 12.79733765220148 UPMSat 2 1 46276U 20061E 24256.59377112 .00077774 00000-0 20201-2 0 9997 2 46276 97.2882 322.0278 0002068 149.4194 210.7173 15.38667757223592 AmicalSat 1 46287U 20061R 24256.75090403 .00211770 00000-0 40239-2 0 9991 2 46287 97.3379 324.5235 0002213 230.4476 129.6579 15.47473852223052 SALSAT 1 46495U 20068K 24256.45036240 .00017466 00000-0 93173-3 0 9997 2 46495 97.8244 218.0818 0014006 25.2109 334.9803 15.15142149217511 UVSQ-SAT 1 47438U 21006AB 24256.65947411 .00459853 00000-0 39726-2 0 9994 2 47438 97.3111 319.2380 0006313 234.6926 125.3745 15.67800863202332 SOMP 2b 1 47445U 21006AJ 24256.72443209 .00322959 00000-0 38274-2 0 9999 2 47445 97.3076 316.9480 0005894 244.5248 115.5400 15.60143596202228 IDEASSat 1 47458U 21006AX 24256.58824608 .00272099 00000-0 39920-2 0 9991 2 47458 97.3202 316.9792 0005399 248.4084 111.6595 15.54560845202102 CubeSX-Sirius-HSE 1 47951U 21022V 24256.85669532 .00078063 00000-0 25362-2 0 9990 2 47951 97.4467 155.2503 0013085 172.0917 188.0533 15.31537805191962 CubeSX-HSE 1 47952U 21022W 24256.86752854 .00078137 00000-0 25230-2 0 9998 2 47952 97.4466 155.3726 0013126 171.1374 189.0101 15.31735111191976 KSU-Cubesat 1 47954U 21022Y 24256.71840734 .00159887 00000-0 44330-2 0 9993 2 47954 97.4473 157.0252 0012611 162.2405 197.9282 15.36222057191785 GRBAlpha 1 47959U 21022AD 24256.82694337 .00077993 00000-0 25139-2 0 9999 2 47959 97.4464 155.4950 0013010 171.4068 188.7399 15.31794444190794 Orbicraft-Zorkiy 1 47960U 21022AE 24256.88240972 .00093253 00000-0 27347-2 0 9999 2 47960 97.4507 157.1948 0012330 165.2657 194.8948 15.34744999191577 TUBIN 1 48900U 21059X 24256.83808794 .00055893 00000-0 16513-2 0 9992 2 48900 97.6559 44.3355 0006402 137.7884 222.3852 15.34735969178347 LEDSAT 1 49069U 21073D 24256.74481528 .00084250 00000-0 28923-2 0 9994 2 49069 97.4287 327.5075 0016429 335.5079 24.5379 15.29677766169811 CUTE 1 49263U 21088D 24256.71148017 .00095998 00000-0 37965-2 0 9993 2 49263 97.4878 322.3614 0014240 135.0672 225.1721 15.24979734162959 TeikyoSat 4 1 49396U 21102B 24256.55991542 .00010529 00000-0 74129-3 0 9999 2 49396 97.4516 298.5198 0012514 345.0748 15.0107 15.05155464155899 Z-Sat 1 49399U 21102E 24256.86859219 .00015776 00000-0 97486-3 0 9990 2 49399 97.4239 300.6075 0018531 319.6621 40.3233 15.09802858156213 KOSEN 1 1 49402U 21102H 24256.71916104 .00030827 00000-0 17183-2 0 9995 2 49402 97.4161 302.2447 0016485 300.9247 59.0364 15.13413829156376 HO-113 1 50466U 21131B 24256.89844424 .00003517 00000-0 11315-2 0 9990 2 50466 98.5249 341.5600 0003675 210.9161 149.1811 14.39943694142622 IRIS-A 1 51044U 22002BN 24256.66245638 .00120998 00000-0 32557-2 0 9992 2 51044 97.3756 323.1249 0005939 90.5134 269.6791 15.37376669147831 OreSat0 1 52017U 22026K 24256.51409648 .00805045 00000-0 29903-2 0 9990 2 52017 97.4796 276.1928 0007893 203.8085 156.2821 15.86113636139364 Planetum 1 1 52738U 22057G 24256.85972106 .00211564 00000-0 30602-2 0 9990 2 52738 97.5712 26.9194 0005359 221.4637 138.6210 15.55159763128128 Foresail-1 1 52766U 22057AL 24256.84030861 .00076809 00000-0 20509-2 0 9999 2 52766 97.5905 24.7704 0008649 182.2868 177.8338 15.37785303127895 SNUGLITE 2 1 52899U 22065F 24256.64617150 .00010189 00000-0 20648-2 0 9998 2 52899 98.1315 36.1839 0006906 235.7565 124.2983 14.61410907117030 IO-117 1 53106U 22080B 24254.10475933 -.00000003 00000-0 00000-0 0 9990 2 53106 70.1447 163.0235 0007964 88.1938 271.9634 6.42557210 50721 FO-118 1 54684U 22167C 24256.89845591 .00114114 00000-0 29632-2 0 9999 2 54684 97.6133 44.3018 0009189 203.5257 156.5568 15.38481727 97748 SSS-2B 1 56184U 23054G 24256.88693233 .00155768 00000-0 25215-2 0 9998 2 56184 97.3524 156.1363 0005965 161.3973 198.7499 15.52237929 79688 CIRBE 1 56188U 23054L 24256.69822776 .00789167 00000-0 37425-2 0 9999 2 56188 97.3377 160.0732 0010989 145.4696 214.7288 15.80885161 79952 INSPIRE-Sat 7 1 56211U 23054AK 24256.70826152 .01717710 18457-2 32588-2 0 9998 2 56211 97.3322 162.0832 0011925 147.7898 212.4111 16.01046347 80076 SO-120 1 56992U 23084BU 24256.79081927 .00185678 00000-0 49652-2 0 9993 2 56992 97.5359 17.6017 0008327 72.7740 287.4415 15.37284071 69598 MRC-100 1 56993U 23084BV 24256.86229320 .00159284 00000-0 37483-2 0 9996 2 56993 97.5356 18.4524 0006659 65.6186 294.5754 15.41323316 69663 UmKA 1 (RS40S) 1 57172U 23091G 24256.90378943 .00021167 00000-0 13264-2 0 9994 2 57172 97.6032 308.1105 0016635 177.8423 182.2880 15.09258922 66714 CubeBel-2 (EU11S) 1 57175U 23091K 24256.86744334 .00028690 00000-0 17354-2 0 9995 2 57175 97.6037 308.1469 0014805 187.6041 172.4966 15.10504890 66713 VERONIKA 1 58261U 23174F 24256.75416531 .00115180 00000-0 43342-2 0 9994 2 58261 97.4527 330.9799 0010330 292.7255 67.2891 15.26592893 47045 KAFASAT 1 58317U 23174BP 24256.74058375 .00153324 00000-0 49303-2 0 9998 2 58317 97.4466 331.9958 0009563 264.7623 95.2527 15.31573730 47122 ENSO 1 58470U 23185J 24256.85357764 .00058016 00000-0 21150-2 0 9998 2 58470 97.4176 322.8552 0010329 331.9012 28.1669 15.27913109 43503 EIRSAT-1 1 58472U 23185L 24256.84687055 .00072006 00000-0 25278-2 0 9998 2 58472 97.4168 322.9891 0009818 331.8493 28.2215 15.29087857 43519 SO-121 1 58567U 23174CY 24256.85058648 .00313461 00000-0 58623-2 0 9995 2 58567 97.4417 333.6743 0011191 263.9988 95.9987 15.47503884 47241 SONATE-2 1 59112U 24043Q 24256.86256475 .00038537 00000-0 16912-2 0 9990 2 59112 97.4866 19.9627 0013808 350.4046 9.6924 15.21759649 29129 MESAT1 1 60209U 24125G 24256.57854995 .00059567 00000-0 25873-2 0 9991 2 60209 97.3138 107.3921 0025973 21.7688 338.4646 15.21772754 10692 GRBBeta 1 60237U 24128C 24256.57676526 .00019190 00000-0 16301-2 0 9991 2 60237 61.9945 297.7919 0016933 335.0712 24.9557 14.97856692 9683 Curium One 1 60242U 24128H 24256.54375632 .00032842 00000-0 28043-2 0 9993 2 60242 61.9854 298.1007 0018074 320.3326 39.6439 14.97398542 9684 ROBUSTA-3A 1 60243U 24128J 24256.48555105 .00029517 00000-0 25399-2 0 9998 2 60243 61.9920 298.4267 0016448 314.9298 45.0454 14.97164868 9679 CatSat 1 60246U 24125J 24256.41189683 .00018828 00000-0 82664-3 0 9997 2 60246 97.2969 108.4143 0050622 332.5117 27.3443 15.20803172 8785 SR-0 DemoSAT 1 60455U 24147B 24256.87018618 .00280909 00000-0 61065-2 0 9994 2 60455 37.3783 126.6205 0020159 244.8585 115.0086 15.42198178 4256 Binar 4 1 60952U 98067WS 24256.67884321 .00364205 00000-0 52487-2 0 9998 2 60952 51.6361 241.6931 0011360 358.3484 1.7467 15.54139785 2227 CosmoGirlSat 1 60953U 98067WT 24256.42481860 .00124427 00000-0 19316-2 0 9997 2 60953 51.6367 242.9973 0012683 353.2541 6.8276 15.52967712 2187 Sakura 1 60954U 98067WU 24256.68055150 .00287811 00000-0 42894-2 0 9999 2 60954 51.6366 241.7051 0012506 355.6669 4.4211 15.53474434 2225 Binar 2 1 60956U 98067WW 24256.29230916 .00163710 00000-0 24481-2 0 9996 2 60956 51.6347 243.6114 0011491 356.0610 4.0288 15.53855121 2158 Binar 3 1 60957U 98067WX 24256.67683599 .00404886 00000-0 57101-2 0 9995 2 60957 51.6358 241.6798 0011195 358.5921 1.5036 15.54591453 4207 /EX
